| time (UTC) | temp F | wind direction | speed MPH | gust MPH | rain 1hr in | rain 24hr in | rain mn in | humidity % | barometer mb |
| 20260506073508 | 58 | 11 | 3.0 | 8.0 | 0.00 | 0.00 | 0.00 | 80 | 1010.4 |
| 20260506073008 | 58 | 331 | 3.0 | 8.0 | 0.00 | 0.00 | 0.00 | 80 | 1010.6 |
| 20260506072504 | 58 | 340 | 1.0 | 6.0 | 0.00 | 0.00 | 0.00 | 80 | 1010.7 |
| 20260506072003 | 58 | 18 | 3.0 | 6.0 | 0.00 | 0.00 | 0.00 | 80 | 1010.6 |
| 20260506071513 | 58 | 12 | 2.0 | 5.0 | 0.00 | 0.00 | 0.00 | 80 | 1010.6 |
| 20260506071007 | 58 | 350 | 3.0 | 8.0 | 0.00 | 0.00 | 0.00 | 80 | 1010.6 |
| 20260506070507 | 58 | 352 | 2.0 | 8.0 | 0.00 | 0.00 | 0.00 | 80 | 1010.5 |
| 20260506062515 | 59 | 52 | 3.0 | 7.0 | 0.00 | 0.00 | 0.00 | 78 | 1009.5 |
| 20260506062011 | 59 | 360 | 4.0 | 8.0 | 0.00 | 0.00 | 0.00 | 78 | 1009.7 |
| 20260506061506 | 59 | 9 | 3.0 | 9.0 | 0.00 | 0.00 | 0.00 | 78 | 1009.7 |
| 20260506061002 | 59 | 329 | 4.0 | 10.0 | 0.00 | 0.00 | 0.00 | 78 | 1009.9 |
| 20260506060505 | 59 | 338 | 4.0 | 10.0 | 0.00 | 0.00 | 0.00 | 77 | 1010.0 |
| 20260506051015 | 60 | 57 | 4.0 | 12.0 | 0.00 | 0.00 | 0.00 | 75 | 1010.2 |
| 20260506050505 | 60 | 24 | 4.0 | 12.0 | 0.00 | 0.00 | 0.00 | 75 | 1010.1 |
| 20260506045007 | 61 | 331 | 3.0 | 9.0 | 0.00 | 0.00 | 0.00 | 75 | 1010.2 |
| 20260506044516 | 61 | 42 | 2.0 | 10.0 | 0.00 | 0.00 | 0.00 | 74 | 1010.3 |
| 20260506044004 | 61 | 350 | 4.0 | 10.0 | 0.00 | 0.00 | 0.00 | 74 | 1010.2 |
| 20260506043506 | 61 | 11 | 5.0 | 9.0 | 0.00 | 0.00 | 0.00 | 74 | 1010.0 |
| 20260506043021 | 61 | 309 | 4.0 | 9.0 | 0.00 | 0.00 | 0.00 | 74 | 1010.0 |
| 20260506042505 | 62 | 315 | 3.0 | 9.0 | 0.00 | 0.00 | 0.00 | 74 | 1009.9 |
| 20260506042012 | 62 | 13 | 5.0 | 9.0 | 0.00 | 0.00 | 0.00 | 73 | 1009.9 |
| 20260506041526 | 62 | 360 | 2.0 | 9.0 | 0.00 | 0.00 | 0.00 | 73 | 1010.0 |
| 20260506041008 | 62 | 11 | 3.0 | 9.0 | 0.00 | 0.00 | 0.00 | 73 | 1010.0 |
| 20260506040508 | 63 | 11 | 4.0 | 9.0 | 0.00 | 0.00 | 0.00 | 73 | 1010.0 |
| 20260506040027 | 63 | 318 | 3.0 | 10.0 | 0.00 | 0.00 | 0.00 | 73 | 1010.1 |
| 20260506035514 | 63 | 352 | 4.0 | 10.0 | 0.00 | 0.00 | 0.00 | 72 | 1009.9 |
| 20260506035003 | 63 | 327 | 3.0 | 9.0 | 0.00 | 0.00 | 0.00 | 72 | 1010.1 |
| 20260506034513 | 63 | 311 | 3.0 | 11.0 | 0.00 | 0.00 | 0.00 | 72 | 1009.9 |
| 20260506034004 | 63 | 336 | 3.0 | 11.0 | 0.00 | 0.00 | 0.00 | 72 | 1009.9 |
| 20260506033506 | 64 | 320 | 5.0 | 11.0 | 0.00 | 0.00 | 0.00 | 72 | 1009.9 |
| 20260506033018 | 64 | 316 | 3.0 | 10.0 | 0.00 | 0.00 | 0.00 | 72 | 1009.8 |
| 20260506032505 | 64 | 325 | 5.0 | 11.0 | 0.00 | 0.00 | 0.00 | 72 | 1009.4 |
| 20260506032012 | 64 | 340 | 2.0 | 11.0 | 0.00 | 0.00 | 0.00 | 72 | 1009.2 |
| 20260506031522 | 64 | 360 | 5.0 | 11.0 | 0.00 | 0.00 | 0.00 | 72 | 1009.0 |
| 20260506031010 | 65 | 13 | 2.0 | 10.0 | 0.00 | 0.00 | 0.00 | 72 | 1009.0 |
| 20260506030506 | 65 | 342 | 4.0 | 10.0 | 0.00 | 0.00 | 0.00 | 71 | 1008.9 |
| 20260506030031 | 65 | 325 | 2.0 | 9.0 | 0.00 | 0.00 | 0.00 | 72 | 1008.8 |
| 20260506025507 | 65 | 352 | 4.0 | 11.0 | 0.00 | 0.00 | 0.00 | 72 | 1008.7 |
| 20260506025011 | 65 | 352 | 2.0 | 12.0 | 0.00 | 0.00 | 0.00 | 72 | 1008.8 |
| 20260506024541 | 65 | 79 | 4.0 | 12.0 | 0.00 | 0.00 | 0.00 | 71 | 1008.6 |
| 20260506024005 | 66 | 15 | 5.0 | 11.0 | 0.00 | 0.00 | 0.00 | 71 | 1008.3 |
| 20260506023506 | 66 | 360 | 5.0 | 10.0 | 0.00 | 0.00 | 0.00 | 71 | 1008.2 |
| 20260506023017 | 66 | 13 | 2.0 | 9.0 | 0.00 | 0.00 | 0.00 | 70 | 1007.9 |
| 20260506022504 | 66 | 340 | 4.0 | 10.0 | 0.00 | 0.00 | 0.00 | 70 | 1008.0 |
| 20260506022009 | 66 | 15 | 4.0 | 10.0 | 0.00 | 0.00 | 0.00 | 70 | 1007.9 |
| 20260506021522 | 66 | 5 | 5.0 | 9.0 | 0.00 | 0.00 | 0.00 | 69 | 1007.6 |
| 20260506021006 | 66 | 350 | 4.0 | 11.0 | 0.00 | 0.00 | 0.00 | 69 | 1007.5 |
| 20260506020508 | 67 | 5 | 4.0 | 10.0 | 0.00 | 0.00 | 0.00 | 69 | 1007.6 |
| 20260506020026 | 67 | 347 | 3.0 | 9.0 | 0.00 | 0.00 | 0.00 | 68 | 1007.7 |
| 20260506015507 | 67 | 345 | 5.0 | 11.0 | 0.00 | 0.00 | 0.00 | 68 | 1007.7 |
| 20260506015014 | 67 | 16 | 4.0 | 11.0 | 0.00 | 0.00 | 0.00 | 67 | 1007.5 |
| 20260506014506 | 68 | 360 | 3.0 | 9.0 | 0.00 | 0.00 | 0.00 | 68 | 1007.6 |
| 20260506014004 | 68 | 360 | 3.0 | 10.0 | 0.00 | 0.00 | 0.00 | 68 | 1007.4 |
| 20260506013504 | 68 | 5 | 3.0 | 11.0 | 0.00 | 0.00 | 0.00 | 68 | 1007.1 |
| 20260506013013 | 68 | 348 | 4.0 | 11.0 | 0.00 | 0.00 | 0.00 | 67 | 1007.1 |
| 20260506012504 | 69 | 304 | 2.0 | 10.0 | 0.00 | 0.00 | 0.00 | 67 | 1006.9 |
| 20260506012006 | 69 | 227 | 3.0 | 10.0 | 0.00 | 0.00 | 0.00 | 67 | 1006.9 |
| 20260506011518 | 70 | 360 | 4.0 | 11.0 | 0.00 | 0.00 | 0.00 | 67 | 1006.7 |
| 20260506011008 | 70 | 28 | 4.0 | 9.0 | 0.00 | 0.00 | 0.00 | 66 | 1006.6 |
| 20260506010507 | 70 | 331 | 4.0 | 11.0 | 0.00 | 0.00 | 0.00 | 66 | 1006.5 |
| 20260506010027 | 71 | 48 | 6.0 | 11.0 | 0.00 | 0.00 | 0.00 | 65 | 1006.3 |
| 20260506005506 | 71 | 360 | 5.0 | 10.0 | 0.00 | 0.00 | 0.00 | 65 | 1006.3 |
| 20260506005008 | 71 | 17 | 2.0 | 9.0 | 0.00 | 0.00 | 0.00 | 65 | 1005.9 |
| 20260506004507 | 71 | 341 | 4.0 | 9.0 | 0.00 | 0.00 | 0.00 | 64 | 1006.0 |
| 20260506004004 | 71 | 360 | 4.0 | 9.0 | 0.00 | 0.00 | 0.00 | 64 | 1006.0 |
| 20260506003504 | 72 | 340 | 4.0 | 12.0 | 0.00 | 0.00 | 0.00 | 63 | 1006.0 |
| 20260506003015 | 72 | 310 | 3.0 | 12.0 | 0.00 | 0.00 | 0.00 | 63 | 1006.0 |
| 20260506002504 | 72 | 16 | 6.0 | 12.0 | 0.00 | 0.00 | 0.00 | 62 | 1005.8 |
| 20260506002007 | 72 | 20 | 5.0 | 12.0 | 0.00 | 0.00 | 0.00 | 62 | 1005.9 |
| 20260506001518 | 73 | 323 | 4.0 | 10.0 | 0.00 | 0.00 | 0.00 | 62 | 1005.6 |
| 20260506001005 | 73 | 346 | 3.0 | 11.0 | 0.00 | 0.00 | 0.00 | 62 | 1005.7 |
| 20260506000508 | 73 | 319 | 4.0 | 11.0 | 0.00 | 0.00 | 0.00 | 61 | 1005.8 |
| 20260506000022 | 74 | 5 | 4.0 | 11.0 | 0.00 | 0.00 | 0.00 | 62 | 1005.7 |
| 20260505235507 | 74 | 317 | 3.0 | 11.0 | 0.00 | 0.00 | 0.00 | 62 | 1005.6 |
| 20260505235007 | 75 | 19 | 4.0 | 12.0 | 0.00 | 0.00 | 0.00 | 61 | 1005.7 |
| 20260505234529 | 75 | 352 | 4.0 | 12.0 | 0.00 | 0.00 | 0.00 | 60 | 1005.4 |
| 20260505234009 | 75 | 5 | 3.0 | 13.0 | 0.00 | 0.00 | 0.00 | 60 | 1005.6 |
| 20260505233504 | 76 | 14 | 7.0 | 16.0 | 0.00 | 0.00 | 0.00 | 60 | 1005.3 |
| 20260505233009 | 77 | 5 | 6.0 | 16.0 | 0.00 | 0.00 | 0.00 | 59 | 1005.4 |
| 20260505232504 | 77 | 344 | 6.0 | 15.0 | 0.00 | 0.00 | 0.00 | 58 | 1005.4 |
| 20260505232005 | 78 | 313 | 9.0 | 14.0 | 0.00 | 0.00 | 0.00 | 56 | 1005.2 |
| 20260505231515 | 80 | 296 | 7.0 | 13.0 | 0.00 | 0.00 | 0.00 | 56 | 1004.9 |
| 20260505231006 | 80 | 13 | 6.0 | 13.0 | 0.00 | 0.00 | 0.00 | 56 | 1004.9 |
| 20260505230505 | 80 | 349 | 5.0 | 11.0 | 0.00 | 0.00 | 0.00 | 55 | 1004.9 |
| 20260505230043 | 80 | 11 | 6.0 | 12.0 | 0.00 | 0.00 | 0.00 | 55 | 1005.0 |
| 20260505225511 | 81 | 9 | 6.0 | 12.0 | 0.00 | 0.00 | 0.00 | 54 | 1004.7 |
| 20260505225006 | 82 | 13 | 7.0 | 13.0 | 0.00 | 0.00 | 0.00 | 54 | 1004.8 |
| 20260505224526 | 83 | 313 | 5.0 | 13.0 | 0.00 | 0.00 | 0.00 | 55 | 1004.9 |
| 20260505224011 | 84 | 273 | 4.0 | 12.0 | 0.00 | 0.00 | 0.00 | 54 | 1004.8 |
| 20260505223512 | 84 | 352 | 5.0 | 12.0 | 0.00 | 0.00 | 0.00 | 49 | 1004.6 |
| 20260505223025 | 85 | 5 | 7.0 | 12.0 | 0.00 | 0.00 | 0.00 | 49 | 1004.5 |
| 20260505222504 | 86 | 44 | 4.0 | 10.0 | 0.00 | 0.00 | 0.00 | 48 | 1004.3 |
| 20260505222005 | 87 | 10 | 4.0 | 10.0 | 0.00 | 0.00 | 0.00 | 45 | 1004.4 |
| 20260505221512 | 87 | 344 | 4.0 | 9.0 | 0.00 | 0.00 | 0.00 | 45 | 1004.4 |
| 20260505221010 | 87 | 340 | 3.0 | 9.0 | 0.00 | 0.00 | 0.00 | 45 | 1004.3 |
| 20260505220506 | 87 | 352 | 5.0 | 10.0 | 0.00 | 0.00 | 0.00 | 43 | 1004.3 |
| 20260505220029 | 87 | 15 | 3.0 | 10.0 | 0.00 | 0.00 | 0.00 | 45 | 1004.3 |
| 20260505215507 | 87 | 360 | 3.0 | 9.0 | 0.00 | 0.00 | 0.00 | 43 | 1004.4 |
| 20260505215007 | 87 | 352 | 2.0 | 9.0 | 0.00 | 0.00 | 0.00 | 45 | 1004.4 |
| 20260505214523 | 87 | 347 | 3.0 | 9.0 | 0.00 | 0.00 | 0.00 | 45 | 1004.3 |
| 20260505214012 | 87 | 17 | 3.0 | 8.0 | 0.00 | 0.00 | 0.00 | 44 | 1004.3 |
| 20260505213510 | 88 | 347 | 3.0 | 8.0 | 0.00 | 0.00 | 0.00 | 44 | 1004.3 |
| 20260505213028 | 90 | 19 | 2.0 | 7.0 | 0.00 | 0.00 | 0.00 | 44 | 1004.4 |
| 20260505212510 | 90 | 246 | 1.0 | 4.0 | 0.00 | 0.00 | 0.00 | 45 | 1004.4 |
| 20260505212011 | 90 | 321 | 1.0 | 5.0 | 0.00 | 0.00 | 0.00 | 43 | 1004.3 |
| 20260505211530 | 90 | 178 | 2.0 | 6.0 | 0.00 | 0.00 | 0.00 | 44 | 1004.4 |
| 20260505211008 | 90 | 236 | 2.0 | 7.0 | 0.00 | 0.00 | 0.00 | 44 | 1004.5 |
| 20260505210505 | 90 | 315 | 2.0 | 10.0 | 0.00 | 0.00 | 0.00 | 46 | 1004.6 |
| 20260505210016 | 90 | 155 | 2.0 | 10.0 | 0.00 | 0.00 | 0.00 | 45 | 1004.6 |
| 20260505205506 | 90 | 245 | 3.0 | 10.0 | 0.00 | 0.00 | 0.00 | 44 | 1004.5 |
| 20260505205009 | 90 | 313 | 2.0 | 6.0 | 0.00 | 0.00 | 0.00 | 45 | 1004.7 |
| 20260505204518 | 90 | 297 | 2.0 | 7.0 | 0.00 | 0.00 | 0.00 | 45 | 1004.8 |
| 20260505204006 | 89 | 155 | 3.0 | 8.0 | 0.00 | 0.00 | 0.00 | 46 | 1004.9 |
| 20260505203507 | 89 | 281 | 3.0 | 8.0 | 0.00 | 0.00 | 0.00 | 46 | 1004.9 |
| 20260505203027 | 89 | 221 | 2.0 | 7.0 | 0.00 | 0.00 | 0.00 | 48 | 1004.9 |
| 20260505202509 | 89 | 217 | 4.0 | 7.0 | 0.00 | 0.00 | 0.00 | 48 | 1005.0 |
| 20260505202012 | 89 | 290 | 2.0 | 7.0 | 0.00 | 0.00 | 0.00 | 47 | 1005.1 |
| 20260505201526 | 89 | 224 | 3.0 | 8.0 | 0.00 | 0.00 | 0.00 | 45 | 1005.0 |
| 20260505201007 | 89 | 257 | 2.0 | 8.0 | 0.00 | 0.00 | 0.00 | 46 | 1005.1 |
| 20260505200514 | 88 | 244 | 2.0 | 8.0 | 0.00 | 0.00 | 0.00 | 50 | 1005.1 |
| 20260505200013 | 89 | 302 | 3.0 | 8.0 | 0.00 | 0.00 | 0.00 | 46 | 1005.2 |
| 20260505195503 | 89 | 217 | 3.0 | 9.0 | 0.00 | 0.00 | 0.00 | 48 | 1005.3 |
| 20260505195005 | 88 | 216 | 3.0 | 13.0 | 0.00 | 0.00 | 0.00 | 49 | 1005.3 |
| 20260505194519 | 88 | 197 | 6.0 | 12.0 | 0.00 | 0.00 | 0.00 | 48 | 1005.3 |
| 20260505194011 | 88 | 238 | 3.0 | 10.0 | 0.00 | 0.00 | 0.00 | 50 | 1005.3 |
| 20260505193506 | 88 | 254 | 4.0 | 10.0 | 0.00 | 0.00 | 0.00 | 47 | 1005.5 |
| 20260505193024 | 88 | 163 | 5.0 | 11.0 | 0.00 | 0.00 | 0.00 | 47 | 1005.4 |
| 20260505192511 | 88 | 267 | 3.0 | 11.0 | 0.00 | 0.00 | 0.00 | 49 | 1005.5 |
| 20260505192011 | 88 | 167 | 5.0 | 11.0 | 0.00 | 0.00 | 0.00 | 49 | 1005.4 |
| 20260505191527 | 88 | 232 | 4.0 | 12.0 | 0.00 | 0.00 | 0.00 | 50 | 1005.4 |
| 20260505191011 | 88 | 199 | 6.0 | 12.0 | 0.00 | 0.00 | 0.00 | 49 | 1005.5 |
| 20260505190508 | 88 | 190 | 5.0 | 11.0 | 0.00 | 0.00 | 0.00 | 49 | 1005.3 |
| 20260505190027 | 88 | 236 | 5.0 | 9.0 | 0.00 | 0.00 | 0.00 | 50 | 1005.5 |
| 20260505185508 | 87 | 195 | 5.0 | 10.0 | 0.00 | 0.00 | 0.00 | 1005.3 | |
| 20260505185005 | 87 | 211 | 5.0 | 10.0 | 0.00 | 0.00 | 0.00 | 50 | 1005.4 |
| 20260505184516 | 87 | 191 | 5.0 | 10.0 | 0.00 | 0.00 | 0.00 | 50 | 1005.4 |
| 20260505184005 | 87 | 166 | 4.0 | 9.0 | 0.00 | 0.00 | 0.00 | 51 | 1005.4 |
| 20260505183507 | 87 | 177 | 4.0 | 12.0 | 0.00 | 0.00 | 0.00 | 51 | 1005.3 |
| 20260505183032 | 86 | 238 | 5.0 | 12.0 | 0.00 | 0.00 | 0.00 | 52 | 1005.3 |
| 20260505182509 | 86 | 203 | 5.0 | 11.0 | 0.00 | 0.00 | 0.00 | 53 | 1005.5 |
| 20260505182016 | 86 | 227 | 7.0 | 11.0 | 0.00 | 0.00 | 0.00 | 1005.6 | |
| 20260505181523 | 86 | 223 | 5.0 | 10.0 | 0.00 | 0.00 | 0.00 | 56 | 1005.5 |
| 20260505181009 | 85 | 229 | 5.0 | 14.0 | 0.00 | 0.00 | 0.00 | 56 | 1005.6 |
| 20260505180513 | 85 | 225 | 5.0 | 13.0 | 0.00 | 0.00 | 0.00 | 56 | 1005.7 |
| 20260505180043 | 85 | 196 | 5.0 | 10.0 | 0.00 | 0.00 | 0.00 | 57 | 1005.8 |
| 20260505175511 | 84 | 167 | 3.0 | 10.0 | 0.00 | 0.00 | 0.00 | 59 | 1005.7 |
| 20260505175011 | 84 | 173 | 5.0 | 10.0 | 0.00 | 0.00 | 0.00 | 59 | 1005.8 |
| 20260505174537 | 84 | 217 | 4.0 | 12.0 | 0.00 | 0.00 | 0.00 | 60 | 1005.7 |
| 20260505174006 | 83 | 217 | 7.0 | 12.0 | 0.00 | 0.00 | 0.00 | 60 | 1005.7 |
| 20260505173506 | 83 | 181 | 5.0 | 13.0 | 0.00 | 0.00 | 0.00 | 62 | 1005.8 |
| 20260505173020 | 83 | 180 | 6.0 | 14.0 | 0.00 | 0.00 | 0.00 | 60 | 1005.8 |
| 20260505172510 | 83 | 184 | 4.0 | 15.0 | 0.00 | 0.00 | 0.00 | 62 | 1005.8 |
| 20260505172014 | 83 | 165 | 7.0 | 15.0 | 0.00 | 0.00 | 0.00 | 61 | 1005.7 |
| 20260505171529 | 83 | 196 | 5.0 | 11.0 | 0.00 | 0.00 | 0.00 | 63 | 1005.6 |
| 20260505171011 | 82 | 182 | 5.0 | 12.0 | 0.00 | 0.00 | 0.00 | 63 | 1005.8 |
| 20260505170509 | 82 | 161 | 5.0 | 12.0 | 0.00 | 0.00 | 0.00 | 64 | 1005.9 |
| 20260505170026 | 81 | 162 | 5.0 | 13.0 | 0.00 | 0.00 | 0.00 | 65 | 1005.8 |
| 20260505165506 | 81 | 171 | 6.0 | 11.0 | 0.00 | 0.00 | 0.00 | 63 | 1005.6 |
| 20260505165014 | 82 | 204 | 5.0 | 10.0 | 0.00 | 0.00 | 0.00 | 64 | 1005.6 |
| 20260505164507 | 82 | 159 | 3.0 | 13.0 | 0.00 | 0.00 | 0.00 | 65 | 1005.6 |
| 20260505164003 | 81 | 188 | 5.0 | 13.0 | 0.00 | 0.00 | 0.00 | 64 | 1005.5 |
| 20260505163500 | 82 | 184 | 5.0 | 12.0 | 0.00 | 0.00 | 0.00 | 65 | 1005.7 |
| 20260505163003 | 82 | 184 | 4.0 | 12.0 | 0.00 | 0.00 | 0.00 | 65 | 1005.6 |
| 20260505162503 | 81 | 148 | 6.0 | 11.0 | 0.00 | 0.00 | 0.00 | 65 | 1005.6 |
| 20260505162004 | 81 | 202 | 6.0 | 11.0 | 0.00 | 0.00 | 0.00 | 64 | 1005.5 |
| 20260505161515 | 81 | 140 | 4.0 | 14.0 | 0.00 | 0.00 | 0.00 | 67 | 1005.5 |
| 20260505161001 | 80 | 227 | 6.0 | 14.0 | 0.00 | 0.00 | 0.00 | 66 | 1005.5 |
| 20260505160501 | 81 | 199 | 6.0 | 14.0 | 0.00 | 0.00 | 0.00 | 66 | 1005.4 |
| 20260505153011 | 78 | 177 | 5.0 | 13.0 | 0.00 | 0.00 | 0.00 | 70 | 1005.5 |
| 20260505152506 | 78 | 229 | 6.0 | 17.0 | 0.00 | 0.00 | 0.00 | 70 | 1005.5 |
| 20260505152000 | 78 | 208 | 6.0 | 16.0 | 0.00 | 0.00 | 0.00 | 70 | 1005.5 |
| 20260505151515 | 77 | 133 | 5.0 | 16.0 | 0.00 | 0.00 | 0.00 | 72 | 1005.4 |
| 20260505151004 | 77 | 206 | 5.0 | 14.0 | 0.00 | 0.00 | 0.00 | 72 | 1005.4 |
| 20260505150504 | 76 | 175 | 7.0 | 15.0 | 0.00 | 0.00 | 0.00 | 73 | 1005.4 |
| 20260505140503 | 71 | 153 | 5.0 | 11.0 | 0.00 | 0.00 | 0.00 | 83 | 1005.4 |
| 20260505125004 | 67 | 178 | 4.0 | 12.0 | 0.00 | 0.00 | 0.00 | 88 | 1004.9 |
| 20260505124520 | 67 | 195 | 4.0 | 12.0 | 0.00 | 0.00 | 0.00 | 88 | 1005.0 |
| 20260505124006 | 67 | 200 | 4.0 | 8.0 | 0.00 | 0.00 | 0.00 | 88 | 1004.9 |
| 20260505123503 | 67 | 182 | 3.0 | 7.0 | 0.00 | 0.00 | 0.00 | 88 | 1004.9 |
| 20260505123022 | 67 | 145 | 3.0 | 8.0 | 0.00 | 0.00 | 0.00 | 88 | 1004.8 |
| 20260505122503 | 67 | 124 | 3.0 | 8.0 | 0.00 | 0.00 | 0.00 | 88 | 1004.7 |
| 20260505122003 | 67 | 156 | 4.0 | 9.0 | 0.00 | 0.00 | 0.00 | 88 | 1004.7 |
| 20260505121520 | 67 | 184 | 4.0 | 9.0 | 0.00 | 0.00 | 0.00 | 88 | 1004.7 |
| 20260505121004 | 66 | 148 | 3.0 | 9.0 | 0.00 | 0.00 | 0.00 | 88 | 1004.7 |
| 20260505120504 | 66 | 200 | 2.0 | 8.0 | 0.00 | 0.00 | 0.00 | 87 | 1004.5 |
| 20260505120019 | 67 | 181 | 3.0 | 8.0 | 0.00 | 0.00 | 0.00 | 87 | 1004.6 |
| 20260505115503 | 67 | 165 | 2.0 | 6.0 | 0.00 | 0.00 | 0.00 | 87 | 1004.6 |
| 20260505115005 | 67 | 160 | 3.0 | 6.0 | 0.00 | 0.00 | 0.00 | 87 | 1004.5 |
| 20260505114522 | 67 | 143 | 3.0 | 7.0 | 0.00 | 0.00 | 0.00 | 87 | 1004.4 |
| 20260505114002 | 67 | 177 | 3.0 | 9.0 | 0.00 | 0.00 | 0.00 | 87 | 1004.3 |
| 20260505113503 | 67 | 175 | 3.0 | 9.0 | 0.00 | 0.00 | 0.00 | 87 | 1004.2 |
| 20260505113015 | 67 | 158 | 4.0 | 8.0 | 0.00 | 0.00 | 0.00 | 87 | 1004.2 |
| 20260505112504 | 67 | 170 | 3.0 | 6.0 | 0.00 | 0.00 | 0.00 | 87 | 1004.3 |
| 20260505112004 | 67 | 185 | 3.0 | 7.0 | 0.00 | 0.00 | 0.00 | 87 | 1004.3 |
| 20260505111518 | 67 | 192 | 4.0 | 7.0 | 0.00 | 0.00 | 0.00 | 87 | 1004.3 |
| 20260505111004 | 67 | 203 | 3.0 | 8.0 | 0.00 | 0.00 | 0.00 | 86 | 1004.2 |
| 20260505110504 | 67 | 159 | 3.0 | 8.0 | 0.00 | 0.00 | 0.00 | 86 | 1004.1 |
| 20260505102006 | 67 | 180 | 3.0 | 7.0 | 0.00 | 0.00 | 0.00 | 85 | 1004.2 |
| 20260505101522 | 68 | 202 | 3.0 | 10.0 | 0.00 | 0.00 | 0.00 | 85 | 1004.1 |
| 20260505101004 | 68 | 194 | 5.0 | 10.0 | 0.00 | 0.00 | 0.00 | 84 | 1004.1 |
| 20260505100504 | 68 | 196 | 5.0 | 9.0 | 0.00 | 0.00 | 0.00 | 84 | 1004.2 |
| 20260505100038 | 68 | 154 | 4.0 | 8.0 | 0.00 | 0.00 | 0.00 | 84 | 1004.2 |
| 20260505095506 | 68 | 168 | 4.0 | 11.0 | 0.00 | 0.00 | 0.00 | 84 | 1004.3 |
| 20260505095004 | 68 | 184 | 3.0 | 11.0 | 0.00 | 0.00 | 0.00 | 84 | 1004.3 |
| 20260505094517 | 68 | 165 | 2.0 | 11.0 | 0.00 | 0.00 | 0.00 | 83 | 1004.3 |
| 20260505094007 | 68 | 154 | 4.0 | 10.0 | 0.00 | 0.00 | 0.00 | 83 | 1004.2 |
| 20260505093504 | 68 | 180 | 4.0 | 10.0 | 0.00 | 0.00 | 0.00 | 83 | 1004.2 |
| 20260505093023 | 68 | 210 | 5.0 | 12.0 | 0.00 | 0.00 | 0.00 | 82 | 1004.2 |
| 20260505092505 | 68 | 211 | 5.0 | 11.0 | 0.00 | 0.00 | 0.00 | 82 | 1004.3 |
| 20260505092008 | 69 | 97 | 4.0 | 9.0 | 0.00 | 0.00 | 0.00 | 82 | 1004.3 |
| 20260505091519 | 69 | 160 | 4.0 | 9.0 | 0.00 | 0.00 | 0.00 | 81 | 1004.4 |
| 20260505091006 | 69 | 224 | 4.0 | 13.0 | 0.00 | 0.00 | 0.00 | 81 | 1004.3 |
| 20260505090507 | 69 | 148 | 6.0 | 13.0 | 0.00 | 0.00 | 0.00 | 81 | 1004.4 |
| 20260505090014 | 69 | 165 | 5.0 | 12.0 | 0.00 | 0.00 | 0.00 | 81 | 1004.4 |
| 20260505085508 | 69 | 196 | 5.0 | 10.0 | 0.00 | 0.00 | 0.00 | 80 | 1004.5 |
| 20260505085005 | 69 | 200 | 4.0 | 12.0 | 0.00 | 0.00 | 0.00 | 80 | 1004.6 |
| 20260505084516 | 69 | 199 | 5.0 | 12.0 | 0.00 | 0.00 | 0.00 | 80 | 1004.6 |
| 20260505084005 | 69 | 167 | 4.0 | 9.0 | 0.00 | 0.00 | 0.00 | 80 | 1004.7 |
| 20260505083504 | 69 | 182 | 3.0 | 7.0 | 0.00 | 0.00 | 0.00 | 79 | 1004.7 |
| 20260505083024 | 69 | 188 | 3.0 | 8.0 | 0.00 | 0.00 | 0.00 | 79 | 1004.8 |
| 20260505082505 | 70 | 166 | 4.0 | 8.0 | 0.00 | 0.00 | 0.00 | 79 | 1004.7 |
| 20260505082005 | 70 | 161 | 3.0 | 9.0 | 0.00 | 0.00 | 0.00 | 78 | 1004.8 |
| 20260505081520 | 70 | 179 | 5.0 | 9.0 | 0.00 | 0.00 | 0.00 | 78 | 1004.8 |
| 20260505081005 | 70 | 151 | 4.0 | 9.0 | 0.00 | 0.00 | 0.00 | 78 | 1004.9 |
| 20260505080504 | 70 | 188 | 3.0 | 9.0 | 0.00 | 0.00 | 0.00 | 78 | 1004.8 |